Location: Pine Mountain Observatory
(43.7910°N, 120.9377°W)
Time: 15:05:45
(UTC-07:00)

Transit 2A - All Passes

Search period start: 24 May 2019 00:00
Search period end: 03 June 2019 00:00
Orbit: 592 x 967 km, 66.7° (Epoch: 24 May)

Date Brightness Start Highest point End Pass type
(mag) Time Alt. Az. Time Alt. Az. Time Alt. Az.
24 May - 06:20:50 10° ESE 06:22:07 11° E 06:23:24 10° E daylight
24 May - 07:58:03 10° SSW 08:04:12 66° ESE 08:10:32 10° NE daylight
24 May - 09:42:31 10° WSW 09:47:58 30° NW 09:53:29 10° NNE daylight
24 May - 11:32:23 10° NNW 11:33:27 10° NNW 11:34:32 10° N daylight
24 May - 15:02:07 10° N 15:06:07 18° NNE 15:09:54 10° ENE daylight
24 May - 16:44:34 10° NNW 16:50:34 71° NE 16:55:56 10° SE daylight
24 May - 18:29:12 10° WNW 18:33:03 19° WSW 18:36:39 10° SW daylight
25 May - 07:24:15 10° S 07:30:11 48° ESE 07:36:16 10° NE daylight
25 May - 09:07:48 10° WSW 09:13:37 38° NW 09:19:32 10° NNE daylight
25 May - 10:56:15 10° NW 10:58:48 12° NNW 11:01:19 10° N daylight
25 May - 14:28:21 10° N 14:31:33 14° NNE 14:34:39 10° ENE daylight
25 May - 16:10:31 10° NNW 16:16:22 51° NE 16:21:38 10° SE daylight
25 May - 17:54:27 10° NW 17:59:13 27° WSW 18:03:36 10° SSW daylight
26 May - 06:50:42 10° S 06:56:13 35° ESE 07:01:54 10° NE daylight
26 May - 08:33:15 10° SW 08:39:20 49° NW 08:45:32 10° NNE daylight
26 May - 10:20:41 10° WNW 10:24:11 15° NNW 10:27:40 10° N daylight
26 May - 13:54:45 10° N 13:56:57 12° NNE 13:59:05 10° NE daylight
26 May - 15:36:30 10° NNW 15:42:05 38° NE 15:47:10 10° ESE daylight
26 May - 17:19:58 10° NW 17:25:20 38° WSW 17:30:11 10° S daylight
27 May - 06:17:25 10° SSE 06:22:20 25° ESE 06:27:21 10° NE daylight
27 May - 07:58:52 10° SW 08:05:07 66° NW 08:11:29 10° NNE daylight
27 May - 09:45:22 10° WNW 09:49:38 18° NW 09:53:53 10° N daylight
27 May - 15:02:32 10° NNW 15:07:45 29° NE 15:12:31 10° ESE daylight
27 May - 16:45:39 10° NW 16:51:22 55° WSW 16:56:31 10° SSE daylight
28 May - 05:44:32 10° SE 05:48:29 18° ESE 05:52:30 10° ENE daylight
28 May - 07:24:40 10° SSW 07:30:58 87° NW 07:37:24 10° NNE daylight
28 May - 09:10:15 10° W 09:15:09 23° NW 09:20:02 10° NNE daylight
28 May - 14:28:37 10° NNW 14:33:19 23° NE 14:37:42 10° E daylight
28 May - 16:11:25 10° NNW 16:17:20 79° WSW 16:22:37 10° SSE daylight
28 May - 17:57:58 10° W 17:59:22 11° W 18:00:44 10° WSW daylight
29 May - 05:12:34 10° ESE 05:14:43 12° E 05:16:52 10° E daylight
29 May - 06:50:39 10° SSW 06:56:52 71° ESE 07:03:14 10° NE daylight
29 May - 08:35:20 10° W 08:40:43 28° NW 08:46:07 10° NNE daylight
29 May - 13:54:46 10° N 13:58:51 18° NE 14:02:42 10° ENE daylight
29 May - 15:37:16 10° NNW 15:43:13 75° ENE 15:48:32 10° SE daylight
29 May - 17:22:08 10° WNW 17:25:37 17° WSW 17:28:54 10° SW daylight
30 May - 06:16:49 10° S 06:22:50 51° ESE 06:28:59 10° NE daylight
30 May - 08:00:34 10° WSW 08:06:21 36° NW 08:12:10 10° NNE daylight
30 May - 09:49:20 10° NW 09:51:35 12° NNW 09:53:48 10° N daylight
30 May - 13:21:00 10° N 13:24:18 15° NNE 13:27:28 10° ENE daylight
30 May - 15:03:12 10° NNW 15:09:03 55° NE 15:14:17 10° SE daylight
30 May - 16:47:17 10° NW 16:51:48 24° WSW 16:55:59 10° SSW daylight
31 May - 05:43:12 10° S 05:48:52 37° ESE 05:54:38 10° NE daylight
31 May - 07:26:00 10° WSW 07:32:03 47° NW 07:38:10 10° NNE daylight
31 May - 09:13:40 10° WNW 09:16:57 14° NNW 09:20:13 10° N daylight
31 May - 12:47:23 10° N 12:49:42 12° NNE 12:51:59 10° NE daylight
31 May - 14:29:10 10° NNW 14:34:47 40° NE 14:39:50 10° ESE daylight
31 May - 16:12:45 10° NW 16:17:56 35° WSW 16:22:38 10° S daylight
01 Jun - 05:09:51 10° SSE 05:14:57 27° ESE 05:20:08 10° NE daylight
01 Jun - 06:51:35 10° SW 06:57:49 62° NW 07:04:09 10° NNE daylight
01 Jun - 08:38:18 10° WNW 08:42:24 17° NNW 08:46:28 10° N daylight
01 Jun - 12:14:26 10° NNE 12:15:03 10° NNE 12:15:40 10° NNE daylight
01 Jun - 13:55:13 10° NNW 14:00:27 31° NE 14:05:14 10° ESE daylight
01 Jun - 15:38:23 10° NW 15:43:59 51° WSW 15:49:00 10° S daylight
02 Jun - 04:36:52 10° SSE 04:41:06 19° ESE 04:45:23 10° ENE visible
02 Jun - 06:17:19 10° SSW 06:23:39 82° WNW 06:30:04 10° NNE daylight
02 Jun - 08:03:08 10° W 08:07:54 21° NW 08:12:37 10° N daylight
02 Jun - 13:21:17 10° NNW 13:26:02 24° NE 13:30:27 10° E daylight
02 Jun - 15:04:08 10° NW 15:09:58 73° WSW 15:15:09 10° SSE daylight
